Showing default

QIANFAN-198, 69416

Orbit data source: Space-Track

QIANFAN-198, 69416 is a Chinese payload satellite in LEO that was launched on Fri, 05 Jun 2026 UTC via a CHANG ZHENG 8 launch vehicle from the Wenchang Satellite Launch Center (WSC). Payload-class satellites include a variety of spacecraft equipped with specific instruments for various scientific and technological missions. These include communications satellites like Starlink; space stations such as the ISS; scientific satellites like the Hubble; Earth observation satellites from companies like Planet Labs, Umbra, and HawkEye 360; GPS; miniature CubeSats for education and research; and military/defense satellites.

Loading next visibility...
Identifier
69416, 2026-125R
Orbit
LEO
Country
Flag of CNCN / PRC
Related business
Manufacturer
SECM?
Mission
Operational spacecraft
Bus & Motor
QIANFAN, Unknown motor
Mass
267 kg wet, ~267 kg dry
Launch date (UTC)
2026-06-05 (2 weeks ago)
Launch vehicle
CHANG ZHENG 8
Launch site
Wenchang Satellite Launch Center (WSC)
Object type
Payload
Rocket body
Debris
Shape & HBR
Unknown
Radar Cross Section
Large (>1 m²)

Expand to show TLE details & history
Last TLE update: 1 day ago

TLE from 1 day ago
0 QIANFAN-198
1 69416U 26125R   26170.77438195 -.01897356  00000-0 -99690+0 0  9995
2 69416  88.9948 280.1483 0009053 170.9232 189.2123 14.17990071  2075
Epoch: 2026-06-19T18:35Z
TLE epoch observation values (Epoch: 2026-06-19T18:35:06.600Z)
Latitude
0.00005°
Longitude
93.37227°
Altitude
841.653 km
Speed
7.429 km/s
True Right ascension
18h 40m 35s
True Declination
0° 00' 00"
Sunlit
Object was in full shadow at epoch
Visualization orbit readout
Latitude
Unknown
Longitude
Unknown
Altitude
Unknown
Speed
Unknown
Apparent Right ascension
Unknown
Apparent Declination
Unknown
Sunlit
N/A
Visualization observer readout
Local Sidereal Time
07:14:00
Azimuth
Unknown
Elevation
Unknown
Doppler factor
Unknown
Orbital elements
Apogee altitude
835.637 km
Perigee altitude
822.588 km
Semi-major axis
7,207.249 km
Eccentricity
0.00091
Inclination
88.9948°
RAAN
280.1483°
Arg. of periapsis
170.9232°
True anomaly
189.19571°
Mean anomaly
189.2123°
Eccentric anomaly
189.204°
Mean motion
3.54723 °/min
Orbital period
101.49 mins
BSTAR
-0.9969
Loading maneuver chart data...
Computing Atmospheric mass density...
Loading historical data...
Loading historical data...
Loading historical data...
Loading historical data...
Loading historical data...
Loading historical data...
Loading historical data...

Documentation

Showing up to 5 results
|